Location: Beekmeers
(50.8953°N, 3.6968°E)
Time: 13:07:15
(UTC+00:00)

Cosmos 724 - Pass Details

Date: 23 May 2024
Orbit: 864 x 930 km, 65.6° (Epoch: 18 June)

Event Time Altitude Azimuth Distance (km) Brightness Sun altitude
Exits shadow 00:12:03 30° 202° (SSW) 1,528 5.0 -18.2°
Maximum altitude 00:15:02 71° 125° (SE) 926 4.3 -18.1°
Drops below altitude 10° 00:20:51 10° 43° (NE) 2,524 7.5 -18.0°
Sets 00:23:19 0° 41° (NE) 3,460 8.4 -17.9°
